Lid_Strength_Index
15 15 16 15 15 15 15 15 15 15 14 14 14 15 14 14 15 14 14 14 14 14 14 14 14 14 14 15 15 15 15 14
14 14 15 15 15 15 14 15 15 14 14 14 14 14 13 13 13 13 13 14 14 14 14 14 15 14 15 15 15 15 15 14
13 14 14 15 15 15 14 14 14 13 13 13 13 13 13 14 14 13 14 14 14 14 15 15 15 15 15 15 15 15 15 14
14 14 14 14 14 14 14 14 13 13 13 13 13 13 13 13 13 13 14 14 15 15 15 15 15 15 15 15 15 15 15 15
14 13 14 14 13 14 14 13 13 13 13 13 13 13 13 13 14 14 14 15 15 15 16 16 16 16 15 14 14 14 14 14
13 14 14 14 13 13 13 13 13 13 13 13 12 13 13 14 14 15 15 16 16 16 16 16 16 14 13 13 13 13 13 13
13 13 13 13 13 12 12 12 12 12 12 12 13 14 14 15 15 16 16 17 17 17 17 17 15 13 11 11 12 13 14 14
12 13 12 13 12 12 12 13 13 13 14 14 14 14 15 16 16 17 17 17 17 17 16 16 16 13 11 11 12 13 14 14
12 12 12 12 13 13 13 13 13 13 14 15 15 16 17 17 17 17 17 17 17 17 17 16 16 13 12 11 13 14 14 14
12 12 13 13 13 13 14 13 14 14 14 15 16 17 17 18 18 17 17 17 18 16 17 18 18 14 12 12 13 14 14 14
13 13 13 13 13 14 14 15 14 14 14 15 16 18 18 17 18 18 19 17 17 18 18 18 19 16 13 12 13 14 14 13
13 13 12 13 14 14 15 15 14 15 16 16 17 18 18 19 18 20 20 19 21 20 19 19 19 18 13 12 12 13 13 13
13 13 13 14 14 14 14 15 16 16 17 18 20 18 19 22 21 22 22 22 22 22 20 18 17 15 13 11 10 10 12 13
13 13 13 15 14 14 15 16 17 18 20 21 21 20 20 22 21 20 21 21 21 19 19 18 16 16 13 11 10 9 10 10
15 15 14 16 15 15 16 17 19 21 20 20 21 20 21 18 19 20 21 20 20 20 20 19 17 16 13 13 12 10 10 10
14 13 13 16 17 18 17 18 20 20 20 20 20 21 19 18 18 18 18 19 22 21 19 18 17 13 10 9 10 10 10 13
15 16 15 17 18 20 20 19 20 20 20 20 20 20 19 19 18 15 13 12 11 10 10 10 9 9 9 9 8 8 11 19
14 15 19 19 19 21 22 22 22 20 20 20 19 20 20 20 20 20 18 15 13 12 10 10 10 9 10 9 9 12 15 23
20 22 21 21 22 23 24 24 25 25 21 21 21 21 21 21 21 20 21 23 21 17 14 13 11 11 10 10 14 22 22 24
23 25 23 24 25 26 25 24 26 24 23 23 23 23 22 21 21 21 22 22 22 22 19 17 14 13 13 15 23 25 24 23